Wind_Speed
43 43 44 44 45 46 46 47 48 49 50 50 50 50 49 48 47 48 48 50 51 53 54 54 56 58 60 60 61 61 62 63 63 63 63 63 63 64 64 63 62 62 62
43 43 43 43 44 44 45 46 47 48 48 49 49 49 49 49 49 50 51 52 54 55 56 56 57 58 60 60 60 61 61 61 61 60 60 61 61 60 59 58 57 57 57
41 41 41 42 42 43 43 45 46 46 47 47 46 47 49 50 51 52 52 53 54 55 55 56 56 57 58 58 59 58 58 57 56 55 55 55 54 53 52 51 51 50 49
38 39 40 40 41 41 42 43 43 44 44 45 46 48 49 50 51 52 52 53 54 54 55 56 56 56 56 55 54 53 52 51 49 48 47 47 47 46 45 44 43 42 42
36 37 38 39 39 40 41 42 43 42 43 45 46 48 48 49 50 51 53 54 54 55 55 55 54 53 52 50 48 47 46 45 44 43 43 42 41 40 39 38 38 37 37
34 35 36 36 38 39 40 41 42 42 43 44 45 46 47 48 49 51 52 53 53 53 52 51 50 49 47 45 43 42 41 40 39 38 37 35 34 34 34 34 34 34 35
32 33 34 35 37 37 38 39 40 41 42 43 44 46 46 47 48 49 49 49 49 48 47 46 44 42 40 38 36 34 33 32 31 30 29 28 28 29 29 30 31 32 32
30 31 31 33 34 35 36 37 38 39 40 42 43 44 45 46 46 46 45 45 44 42 41 39 36 34 32 30 28 27 26 25 24 23 23 23 24 25 26 27 27 27 27
28 29 29 30 31 32 33 34 36 37 38 39 40 40 41 41 41 40 39 38 37 34 32 30 28 26 25 23 21 20 19 19 19 19 19 20 21 22 22 23 22 22 23
26 27 28 29 30 31 32 32 33 34 35 36 36 37 37 36 35 34 33 31 28 26 24 22 20 18 16 15 14 13 13 13 14 14 15 16 17 18 18 18 19 20 20
25 25 26 27 27 28 28 29 30 31 32 32 31 31 31 30 28 26 24 22 20 17 16 14 13 11 10 9 9 9 10 10 11 12 13 14 15 16 17 18 18 19 19
22 23 23 23 24 24 25 26 27 28 28 27 27 26 25 23 21 19 17 15 13 11 10 8 8 7 7 7 7 7 8 9 10 11 12 13 14 15 16 17 17 18 18
20 20 20 21 21 22 23 24 24 24 24 24 23 21 20 18 16 14 12 11 9 9 8 8 8 7 7 7 8 8 8 9 10 11 12 13 15 16 16 17 17 18 18
18 18 18 19 19 20 20 21 20 20 20 19 18 17 14 13 12 11 10 9 9 9 10 10 10 9 9 9 9 9 10 10 11 12 13 14 15 16 16 16 16 17 18
16 16 16 16 17 17 18 18 17 17 17 16 14 13 11 11 10 10 9 9 9 10 10 10 10 10 10 10 10 10 11 11 12 12 13 14 15 15 15 15 16 17 17
14 14 14 15 15 15 15 15 14 14 13 12 11 10 10 10 10 9 9 10 10 10 10 10 10 10 11 11 11 11 11 12 12 12 13 14 15 15 14 15 15 16 15
12 12 12 12 12 12 12 11 11 11 11 10 9 9 9 9 10 10 10 10 11 11 10 10 10 11 11 11 12 12 12 12 12 12 13 13 14 14 14 14 14 14 14
10 10 10 10 10 10 10 9 9 9 8 8 8 9 9 9 10 10 10 10 10 11 10 10 10 11 11 12 12 12 12 12 12 12 12 12 13 13 13 12 13 13 13
9 9 9 8 8 7 7 7 7 7 7 7 8 8 9 9 9 10 10 10 10 10 10 10 11 11 12 12 12 13 13 13 13 13 13 13 13 13 12 12 12 13 13
8 7 7 6 6 5 5 6 6 6 6 7 7 8 8 9 9 9 9 9 9 10 10 10 11 12 12 12 13 13 14 14 13 13 13 13 13 13 12 12 12 12 13
7 7 6 5 5 5 5 5 6 6 6 6 7 7 8 8 9 9 9 9 9 10 10 10 11 12 12 13 13 14 14 14 14 14 14 13 13 13 12 12 11 11 12
7 7 6 6 5 5 5 5 6 6 6 6 6 7 7 8 8 9 9 9 9 10 10 11 11 12 13 13 14 14 15 14 14 15 14 14 13 13 12 12 11 11 12
7 7 7 6 6 6 6 6 6 6 6 6 6 7 7 8 8 9 9 9 9 10 10 11 12 12 13 13 14 15 15 15 15 15 15 14 14 13 13 12 11 11 11
8 7 7 7 6 6 6 6 6 6 6 6 6 6 7 7 8 8 9 9 10 10 10 11 12 12 13 14 14 15 15 15 15 15 14 14 14 13 13 12 12 12 12
8 8 7 7 6 6 6 6 6 6 6 6 6 7 7 7 8 8 9 9 10 10 11 11 12 13 13 14 14 14 15 15 15 15 15 14 14 13 13 13 13 12 12
9 9 8 8 7 7 6 6 6 6 7 7 7 7 7 8 8 9 9 10 10 10 11 12 12 13 13 14 14 15 15 15 15 15 15 15 14 14 14 13 13 13 13
Wind_Direction
277 278 279 280 282 283 283 283 284 284 284 284 284 283 282 282 281 281 280 281 281 280 279 279 279 278 279 279 279 279 280 280 280 281 282 281 281 282 283 283 283 283 283
277 277 278 280 280 281 281 281 281 282 282 281 281 280 280 280 281 281 280 280 281 281 281 280 281 281 280 280 280 280 280 281 281 281 282 282 283 283 284 284 284 285 284
278 278 279 279 279 279 279 279 280 280 281 281 279 278 279 280 281 281 281 281 281 282 282 282 282 282 282 282 283 282 283 283 283 284 284 284 285 285 285 286 287 286 286
277 277 278 278 278 278 279 279 279 279 279 279 279 280 281 282 283 283 283 284 285 285 286 285 285 284 285 285 285 285 285 285 285 286 286 286 287 288 288 289 288 288 289
275 275 276 276 277 278 278 279 279 279 281 282 283 285 286 287 287 287 287 288 288 288 288 287 287 287 287 287 287 287 286 286 286 287 288 289 290 290 290 290 290 291 291
274 274 275 276 277 279 280 282 284 286 287 288 289 290 290 290 290 289 290 290 290 289 289 289 288 288 288 288 288 288 287 288 288 289 290 291 291 291 291 291 292 292 292
275 276 278 280 281 283 285 287 289 291 293 293 294 294 293 293 293 293 293 292 292 291 291 290 290 290 290 291 291 290 290 290 291 292 293 294 294 294 295 296 297 297 297
281 282 283 284 286 288 290 292 294 295 296 297 298 298 298 298 297 296 295 295 294 294 294 293 292 292 291 291 291 292 293 292 293 295 296 297 298 300 301 302 303 303 303
286 286 288 289 291 293 295 296 298 300 301 302 303 303 302 302 301 301 300 300 300 298 297 295 293 293 293 293 294 294 294 296 298 300 301 303 304 306 307 308 309 309 310
290 291 293 294 296 297 299 301 304 305 306 307 308 308 307 307 306 305 305 305 304 303 301 299 298 297 297 298 298 299 301 305 309 311 313 314 316 318 319 319 319 319 319
293 295 297 299 300 302 305 307 310 312 313 313 313 313 313 313 313 313 313 313 312 312 311 309 308 308 309 311 313 316 320 323 326 327 326 326 328 330 331 330 329 329 329
297 299 301 303 305 309 311 313 315 316 317 318 317 318 319 321 322 324 327 330 332 333 335 338 341 341 342 344 346 344 342 342 343 339 337 337 338 339 339 340 340 340 340
300 302 305 307 309 312 315 317 318 319 321 321 322 323 326 330 333 339 345 351 357 5 14 20 21 22 20 16 9 4 2 359 356 353 350 349 349 349 349 350 350 350 349
304 305 307 310 312 315 319 321 323 325 328 329 331 334 340 346 351 358 8 19 28 35 37 35 36 37 34 30 24 18 12 7 5 3 1 357 355 355 355 356 357 358 358
306 308 311 313 316 319 321 324 326 331 335 338 343 351 0 7 12 20 33 41 44 45 45 42 42 39 33 31 26 20 16 11 9 8 6 4 2 1 2 2 1 360 3
308 310 313 316 319 322 326 330 333 337 342 349 359 8 17 24 30 40 48 51 51 51 49 45 42 37 35 30 25 22 19 17 16 14 11 9 8 7 7 7 7 9 15
310 312 316 319 324 328 333 339 345 351 357 5 13 20 29 37 46 51 54 53 49 46 44 42 39 35 32 29 26 25 23 20 17 14 12 12 12 12 12 13 14 18 25
314 314 318 322 328 333 339 347 356 4 11 20 27 35 42 47 51 52 53 50 45 42 40 37 36 33 30 28 27 25 23 21 19 18 18 18 18 18 19 21 21 24 29
321 320 322 327 333 341 349 0 10 20 28 35 39 43 46 48 50 51 50 47 44 40 37 35 34 30 28 28 28 26 24 23 23 23 24 23 24 24 25 28 28 30 37
339 338 338 341 346 358 11 19 25 32 38 43 45 47 49 50 50 49 47 44 42 38 36 34 31 29 28 28 27 25 24 25 26 26 26 27 28 29 31 34 36 39 42
4 4 5 9 16 22 27 31 35 39 44 45 46 48 49 49 47 46 44 41 39 35 33 33 32 29 27 27 26 24 25 26 26 26 28 30 31 33 35 38 42 44 47
19 23 27 33 39 41 39 40 41 42 45 48 49 49 47 44 42 40 38 37 35 35 35 33 29 26 26 26 24 23 24 26 26 27 30 33 35 36 38 42 45 47 50
32 35 39 43 47 47 45 45 45 46 49 51 50 48 44 41 39 36 35 35 34 35 34 30 28 26 25 22 22 23 25 27 29 30 32 36 39 40 41 44 47 49 52
41 42 45 47 47 45 45 46 48 50 51 48 44 41 39 37 36 36 35 35 35 35 33 31 29 26 24 24 24 25 27 29 31 33 34 36 39 42 44 47 50 51 53
44 43 43 44 44 44 45 48 50 51 50 47 43 41 40 40 40 38 37 37 37 36 32 30 28 27 26 26 27 28 29 30 32 34 36 38 40 44 47 49 52 53 55
46 43 42 42 43 44 48 52 54 54 52 49 48 48 48 46 42 38 38 38 36 33 31 31 29 28 27 28 28 29 31 32 34 36 38 40 43 46 49 51 53 55 56
Height
5796 5794 5792 5791 5789 5787 5785 5782 5779 5777 5774 5771 5769 5766 5763 5761 5758 5756 5753 5750 5747 5744 5741 5737 5734 5730 5726 5722 5718 5714 5710 5705 5701 5697 5693 5689 5686 5681 5678 5674 5670 5666 5662
5786 5784 5782 5780 5778 5776 5774 5771 5768 5765 5762 5759 5756 5753 5750 5747 5745 5742 5739 5736 5732 5729 5725 5721 5717 5713 5709 5704 5700 5696 5692 5688 5684 5680 5676 5672 5669 5665 5662 5658 5653 5650 5646
5775 5773 5772 5769 5767 5765 5763 5760 5757 5754 5751 5747 5744 5741 5738 5734 5731 5728 5724 5720 5716 5712 5709 5705 5700 5696 5692 5688 5683 5679 5675 5671 5667 5663 5659 5656 5653 5650 5646 5642 5638 5635 5630
5765 5763 5761 5759 5756 5754 5751 5748 5745 5742 5739 5736 5732 5729 5725 5721 5717 5714 5709 5705 5701 5697 5693 5688 5684 5680 5675 5671 5668 5664 5660 5656 5653 5650 5646 5643 5639 5636 5633 5630 5626 5621 5618
5755 5753 5751 5748 5746 5743 5741 5737 5734 5731 5727 5724 5720 5716 5712 5708 5704 5700 5695 5691 5686 5682 5677 5673 5668 5664 5660 5657 5653 5650 5647 5643 5640 5637 5634 5631 5628 5625 5622 5618 5615 5611 5606
5745 5743 5741 5738 5736 5733 5730 5727 5723 5720 5716 5712 5709 5704 5700 5696 5691 5686 5681 5677 5672 5667 5663 5658 5654 5650 5646 5643 5640 5637 5634 5632 5629 5626 5623 5621 5618 5615 5611 5608 5604 5601 5597
5736 5734 5732 5729 5727 5724 5720 5717 5713 5709 5705 5701 5697 5692 5688 5683 5678 5673 5668 5663 5658 5653 5649 5644 5640 5637 5634 5631 5629 5626 5624 5622 5619 5617 5615 5612 5609 5606 5603 5599 5595 5591 5588
5727 5725 5723 5720 5717 5715 5711 5708 5704 5700 5695 5691 5686 5680 5675 5670 5665 5659 5654 5650 5645 5640 5636 5632 5629 5626 5624 5621 5619 5617 5616 5614 5612 5610 5608 5605 5602 5599 5595 5592 5588 5584 5580
5719 5717 5714 5712 5709 5706 5703 5699 5695 5690 5685 5680 5675 5669 5664 5658 5653 5648 5643 5638 5633 5629 5625 5622 5620 5618 5616 5614 5612 5611 5609 5608 5607 5605 5603 5600 5597 5594 5590 5586 5583 5579 5575
5711 5709 5707 5704 5701 5698 5694 5690 5686 5681 5676 5671 5665 5659 5654 5648 5643 5638 5633 5629 5625 5621 5618 5615 5613 5611 5610 5608 5607 5606 5605 5604 5602 5601 5599 5596 5593 5589 5586 5582 5578 5574 5570
5705 5702 5699 5697 5694 5690 5686 5682 5678 5673 5667 5662 5657 5652 5646 5641 5636 5631 5626 5622 5619 5616 5613 5611 5609 5608 5606 5605 5604 5603 5602 5601 5600 5598 5596 5593 5590 5586 5583 5579 5575 5571 5567
5698 5696 5693 5690 5687 5684 5680 5675 5671 5666 5661 5656 5651 5646 5641 5636 5631 5627 5623 5619 5616 5613 5611 5609 5607 5606 5605 5604 5603 5602 5601 5600 5598 5596 5594 5591 5588 5584 5581 5576 5572 5568 5564
5693 5690 5687 5684 5681 5678 5674 5670 5666 5661 5657 5652 5647 5642 5637 5632 5628 5624 5621 5618 5615 5613 5611 5609 5608 5606 5605 5605 5603 5602 5601 5599 5597 5595 5593 5590 5587 5583 5579 5575 5571 5567 5563
5687 5685 5682 5679 5676 5673 5669 5665 5661 5657 5653 5648 5644 5639 5635 5631 5627 5624 5621 5619 5616 5614 5613 5611 5609 5608 5607 5606 5604 5603 5601 5599 5597 5595 5592 5589 5586 5582 5578 5575 5571 5566 5562
5683 5680 5678 5675 5672 5669 5665 5662 5658 5654 5650 5646 5642 5638 5634 5631 5628 5625 5622 5620 5618 5616 5615 5613 5612 5611 5609 5607 5606 5604 5602 5600 5598 5595 5592 5589 5585 5582 5578 5574 5570 5566 5562
5678 5676 5674 5672 5669 5666 5662 5659 5655 5652 5649 5645 5642 5638 5635 5632 5629 5627 5625 5623 5621 5619 5617 5616 5614 5613 5611 5609 5607 5605 5603 5601 5598 5595 5592 5589 5586 5582 5578 5575 5571 5567 5563
5674 5673 5671 5668 5666 5663 5660 5657 5654 5651 5648 5645 5642 5639 5637 5634 5632 5630 5628 5626 5624 5622 5620 5619 5617 5615 5613 5611 5609 5606 5604 5601 5599 5596 5593 5589 5586 5582 5579 5575 5572 5568 5565
5671 5669 5668 5665 5663 5661 5659 5656 5654 5651 5648 5646 5644 5641 5639 5637 5634 5632 5630 5628 5627 5625 5623 5621 5619 5617 5615 5612 5610 5607 5605 5602 5599 5596 5593 5590 5586 5583 5580 5576 5573 5570 5566
5668 5666 5665 5663 5661 5660 5658 5656 5654 5651 5649 5647 5645 5643 5641 5639 5637 5635 5633 5631 5629 5627 5625 5623 5621 5619 5616 5614 5611 5608 5606 5602 5599 5596 5593 5590 5587 5584 5581 5578 5575 5571 5568
5665 5664 5662 5661 5660 5659 5657 5656 5654 5652 5650 5649 5647 5645 5643 5641 5639 5637 5635 5633 5631 5629 5627 5625 5623 5620 5618 5615 5612 5610 5606 5603 5600 5597 5594 5591 5588 5585 5582 5579 5576 5574 5570
5665 5663 5661 5660 5659 5658 5657 5656 5655 5653 5651 5650 5648 5647 5645 5643 5641 5639 5637 5635 5633 5631 5629 5627 5624 5622 5619 5616 5614 5611 5608 5604 5601 5598 5595 5592 5589 5586 5583 5580 5578 5575 5573
5665 5663 5662 5660 5659 5659 5658 5657 5656 5654 5653 5652 5650 5649 5647 5645 5643 5641 5639 5637 5635 5633 5631 5628 5626 5623 5621 5618 5615 5612 5609 5606 5603 5599 5596 5593 5590 5588 5585 5582 5580 5577 5575
5666 5664 5663 5662 5661 5660 5659 5658 5657 5655 5654 5653 5652 5650 5649 5647 5645 5643 5641 5639 5637 5635 5632 5630 5627 5625 5622 5619 5616 5613 5610 5607 5604 5601 5598 5595 5592 5590 5587 5584 5582 5580 5577
5667 5666 5665 5664 5663 5662 5661 5659 5658 5657 5656 5654 5653 5652 5650 5648 5647 5645 5643 5641 5638 5636 5634 5631 5629 5626 5624 5621 5618 5615 5612 5609 5606 5603 5600 5597 5594 5592 5589 5587 5584 5582 5580
5669 5668 5667 5666 5664 5663 5662 5661 5660 5658 5657 5656 5654 5653 5651 5650 5648 5646 5644 5642 5640 5638 5636 5633 5631 5628 5625 5623 5620 5617 5614 5611 5608 5605 5602 5599 5596 5594 5591 5589 5587 5584 5582
5672 5670 5669 5667 5666 5665 5663 5662 5661 5660 5659 5657 5656 5654 5653 5652 5650 5648 5646 5644 5642 5640 5637 5635 5633 5630 5627 5625 5622 5619 5616 5613 5610 5607 5604 5602 5599 5596 5594 5592 5589 5587 5585